• In Uzbekistan
  • List of Countries
  • For 7 days
  • Water Temperature
  • Satellite Maps
  • Weather Map
  • Weather Widgets
  • user-avatar
    Login

    Hourly Weather Giengen an der Brenz

    Today, 20 September, Wednesday

    Time Temperature Precipitation Wind Pressure Humidity
    00:00 +6°C° 0 mm 2 mps 721 mmHg 94%
    01:00 +6°C° 0 mm 2 mps 721 mmHg 96%
    02:00 +6°C° 0 mm 2 mps 721 mmHg 96%
    03:00 +6°C° 0 mm 2 mps 721 mmHg 96%
    04:00 +6°C° 0 mm 2 mps 721 mmHg 97%
    05:00 +6°C° 0 mm 2 mps 722 mmHg 97%
    06:00 +6°C° 0 mm 2 mps 722 mmHg 97%
    07:00 +6°C° 0 mm 2 mps 722 mmHg 98%
    08:00 +8°C° 0.1 mm 2 mps 722 mmHg 93%
    09:00 +9°C° 0.1 mm 3 mps 722 mmHg 89%
    10:00 +11°C° 0.1 mm 3 mps 723 mmHg 85%
    11:00 +12°C° 0.2 mm 3 mps 723 mmHg 80%
    12:00 +13°C° 0.2 mm 3 mps 722 mmHg 74%
    13:00 +13°C° 0.2 mm 3 mps 722 mmHg 69%
    14:00 +15°C° 0.1 mm 2 mps 722 mmHg 68%
    15:00 +15°C° 0.1 mm 2 mps 722 mmHg 66%
    16:00 +15°C° 0.1 mm 2 mps 722 mmHg 65%
    17:00 +13°C° 0 mm 1 mps 722 mmHg 71%
    18:00 +11°C° 0 mm 1 mps 722 mmHg 78%
    19:00 +8°C° 0 mm 0 mps 722 mmHg 84%
    20:00 +8°C° 0 mm 0 mps 722 mmHg 85%
    21:00 +8°C° 0 mm 0 mps 722 mmHg 86%
    22:00 +7°C° 0 mm 0 mps 723 mmHg 87%
    23:00 +8°C° 0 mm 1 mps 723 mmHg 88%

    Tomorrow, 21 September, Thursday

    Time Temperature Precipitation Wind Pressure Humidity
    00:00 +7°C° 0 mm 1 mps 723 mmHg 88%
    01:00 +7°C° 0 mm 1 mps 723 mmHg 89%
    02:00 +7°C° 0 mm 1 mps 723 mmHg 90%
    03:00 +7°C° 0 mm 1 mps 722 mmHg 90%
    04:00 +6°C° 0 mm 1 mps 722 mmHg 90%
    05:00 +7°C° 0 mm 1 mps 722 mmHg 90%
    06:00 +7°C° 0 mm 1 mps 722 mmHg 89%
    07:00 +7°C° 0 mm 1 mps 722 mmHg 89%
    08:00 +9°C° 0 mm 1 mps 722 mmHg 82%
    09:00 +12°C° 0 mm 1 mps 722 mmHg 75%
    10:00 +14°C° 0 mm 1 mps 722 mmHg 68%
    11:00 +15°C° 0 mm 1 mps 722 mmHg 63%
    12:00 +16°C° 0 mm 1 mps 721 mmHg 59%
    13:00 +17°C° 0 mm 2 mps 721 mmHg 55%
    14:00 +17°C° 0 mm 2 mps 721 mmHg 57%
    15:00 +17°C° 0 mm 2 mps 721 mmHg 58%
    16:00 +17°C° 0 mm 2 mps 721 mmHg 60%
    17:00 +15°C° 0 mm 2 mps 720 mmHg 67%
    18:00 +13°C° 0 mm 2 mps 720 mmHg 75%
    19:00 +11°C° 0 mm 1 mps 720 mmHg 82%
    20:00 +11°C° 0 mm 1 mps 720 mmHg 84%
    21:00 +10°C° 0 mm 1 mps 721 mmHg 86%
    22:00 +9°C° 0 mm 1 mps 721 mmHg 88%
    23:00 +9°C° 0 mm 1 mps 721 mmHg 88%

    Day after tomorrow, 22 September, Friday

    Time Temperature Precipitation Wind Pressure Humidity
    00:00 +9°C° 0 mm 1 mps 721 mmHg 89%
    01:00 +8°C° 0 mm 1 mps 721 mmHg 89%
    02:00 +8°C° 0 mm 1 mps 721 mmHg 89%
    03:00 +8°C° 0 mm 1 mps 721 mmHg 89%
    04:00 +8°C° 0 mm 1 mps 721 mmHg 89%
    05:00 +8°C° 0 mm 1 mps 721 mmHg 88%
    06:00 +8°C° 0 mm 1 mps 721 mmHg 87%
    07:00 +9°C° 0 mm 1 mps 721 mmHg 86%
    08:00 +11°C° 0 mm 1 mps 721 mmHg 78%
    09:00 +14°C° 0 mm 2 mps 722 mmHg 71%
    10:00 +16°C° 0 mm 2 mps 722 mmHg 64%
    11:00 +17°C° 0 mm 2 mps 722 mmHg 60%
    12:00 +18°C° 0 mm 2 mps 722 mmHg 57%
    13:00 +20°C° 0 mm 2 mps 722 mmHg 54%
    14:00 +20°C° 0 mm 2 mps 722 mmHg 56%
    15:00 +20°C° 0 mm 2 mps 722 mmHg 58%
    16:00 +20°C° 0 mm 2 mps 722 mmHg 60%
    17:00 +17°C° 0 mm 2 mps 722 mmHg 67%
    18:00 +15°C° 0 mm 1 mps 722 mmHg 74%
    19:00 +13°C° 0 mm 1 mps 723 mmHg 80%
    20:00 +13°C° 0 mm 1 mps 723 mmHg 82%
    21:00 +12°C° 0 mm 1 mps 723 mmHg 84%
    22:00 +11°C° 0 mm 0 mps 723 mmHg 86%
    23:00 +11°C° 0 mm 1 mps 724 mmHg 87%

    23 September, Saturday

    Time Temperature Precipitation Wind Pressure Humidity
    00:00 +11°C° 0 mm 1 mps 724 mmHg 88%
    01:00 +11°C° 0 mm 1 mps 724 mmHg 89%
    02:00 +10°C° 0 mm 1 mps 724 mmHg 90%
    03:00 +10°C° 0 mm 1 mps 724 mmHg 90%
    04:00 +9°C° 0 mm 0 mps 723 mmHg 91%
    05:00 +9°C° 0 mm 0 mps 724 mmHg 91%
    06:00 +10°C° 0 mm 0 mps 724 mmHg 90%
    07:00 +10°C° 0 mm 0 mps 724 mmHg 90%
    08:00 +12°C° 0 mm 0 mps 724 mmHg 85%
    09:00 +14°C° 0 mm 0 mps 724 mmHg 80%
    10:00 +16°C° 0 mm 0 mps 724 mmHg 75%
    11:00 +19°C° 0.1 mm 1 mps 724 mmHg 71%
    12:00 +20°C° 0.1 mm 1 mps 724 mmHg 68%
    13:00 +21°C° 0.1 mm 1 mps 724 mmHg 65%
    14:00 +20°C° 0.1 mm 1 mps 724 mmHg 66%
    15:00 +20°C° 0.1 mm 1 mps 723 mmHg 67%
    16:00 +20°C° 0.1 mm 1 mps 723 mmHg 69%
    17:00 +18°C° 0 mm 1 mps 723 mmHg 75%
    18:00 +16°C° 0 mm 1 mps 723 mmHg 81%
    19:00 +14°C° 0 mm 1 mps 723 mmHg 88%
    20:00 +13°C° 0 mm 1 mps 723 mmHg 89%
    21:00 +13°C° 0 mm 1 mps 724 mmHg 90%
    22:00 +12°C° 0 mm 1 mps 724 mmHg 91%
    23:00 +12°C° 0 mm 1 mps 723 mmHg 92%

    24 September, Sunday

    Time Temperature Precipitation Wind Pressure Humidity
    00:00 +11°C° 0 mm 1 mps 723 mmHg 92%
    01:00 +10°C° 0 mm 0 mps 723 mmHg 92%
    02:00 +11°C° 0 mm 1 mps 723 mmHg 92%
    03:00 +10°C° 0 mm 1 mps 723 mmHg 93%
    04:00 +10°C° 0 mm 1 mps 723 mmHg 93%
    05:00 +10°C° 0 mm 1 mps 723 mmHg 93%
    06:00 +10°C° 0 mm 1 mps 723 mmHg 93%
    07:00 +10°C° 0 mm 1 mps 723 mmHg 93%
    08:00 +13°C° 0 mm 1 mps 724 mmHg 87%
    09:00 +15°C° 0 mm 1 mps 724 mmHg 81%
    10:00 +18°C° 0 mm 1 mps 724 mmHg 75%
    11:00 +19°C° 0 mm 1 mps 724 mmHg 71%
    12:00 +20°C° 0 mm 1 mps 724 mmHg 66%
    13:00 +21°C° 0 mm 1 mps 724 mmHg 62%
    14:00 +21°C° 0 mm 1 mps 724 mmHg 63%
    15:00 +21°C° 0 mm 1 mps 724 mmHg 63%
    16:00 +21°C° 0 mm 1 mps 724 mmHg 64%
    17:00 +19°C° 0 mm 1 mps 724 mmHg 71%
    18:00 +16°C° 0 mm 1 mps 724 mmHg 78%
    19:00 +14°C° 0 mm 1 mps 724 mmHg 85%
    20:00 +14°C° 0 mm 1 mps 724 mmHg 87%
    21:00 +13°C° 0 mm 1 mps 724 mmHg 89%
    22:00 +12°C° 0 mm 1 mps 724 mmHg 90%
    23:00 +12°C° 0 mm 1 mps 725 mmHg 91%

    25 September, Monday

    Time Temperature Precipitation Wind Pressure Humidity
    00:00 +12°C° 0 mm 1 mps 725 mmHg 91%
    01:00 +11°C° 0 mm 1 mps 725 mmHg 92%
    02:00 +11°C° 0 mm 1 mps 725 mmHg 92%
    03:00 +11°C° 0 mm 1 mps 724 mmHg 93%
    04:00 +11°C° 0 mm 1 mps 724 mmHg 93%
    05:00 +11°C° 0 mm 1 mps 724 mmHg 93%
    06:00 +11°C° 0 mm 1 mps 724 mmHg 93%
    07:00 +11°C° 0 mm 1 mps 724 mmHg 93%
    08:00 +13°C° 0 mm 1 mps 724 mmHg 87%
    09:00 +15°C° 0 mm 2 mps 724 mmHg 80%
    10:00 +17°C° 0 mm 2 mps 724 mmHg 74%
    11:00 +18°C° 0 mm 2 mps 724 mmHg 69%
    12:00 +19°C° 0 mm 2 mps 724 mmHg 65%
    13:00 +20°C° 0 mm 2 mps 723 mmHg 61%
    14:00 +20°C° 0 mm 2 mps 723 mmHg 62%
    15:00 +20°C° 0 mm 2 mps 723 mmHg 63%
    16:00 +19°C° 0 mm 2 mps 723 mmHg 65%
    17:00 +18°C° 0 mm 2 mps 722 mmHg 71%
    18:00 +16°C° 0 mm 2 mps 722 mmHg 78%
    19:00 +14°C° 0 mm 2 mps 722 mmHg 85%
    20:00 +13°C° 0 mm 2 mps 722 mmHg 86%
    21:00 +13°C° 0 mm 1 mps 722 mmHg 87%
    22:00 +12°C° 0 mm 1 mps 722 mmHg 89%
    23:00 +12°C° 0 mm 1 mps 722 mmHg 89%
    Show more